| time (UTC) | temp F | wind direction | speed MPH | gust MPH | rain 1hr in | rain 24hr in | rain mn in | humidity % | barometer mb |
| 20260906061825 | 69 | 263 | 0.0 | 0.0 | 0.00 | 0.00 | 0.00 | 45 | 1012.0 |
| 20260906061335 | 69 | 263 | 0.0 | 0.0 | 0.00 | 0.00 | 0.00 | 44 | 1012.0 |
| 20260906060822 | 69 | 263 | 0.0 | 0.0 | 0.00 | 0.00 | 0.00 | 43 | 1012.1 |
| 20260906060335 | 70 | 263 | 0.0 | 0.0 | 0.00 | 0.00 | 0.00 | 42 | 1012.1 |
| 20260906055823 | 70 | 263 | 0.0 | 0.0 | 0.00 | 0.00 | 0.00 | 42 | 1012.1 |
| 20260906055333 | 70 | 263 | 0.0 | 0.0 | 0.00 | 0.00 | 0.00 | 41 | 1012.1 |
| 20260906054821 | 70 | 263 | 0.0 | 0.0 | 0.00 | 0.00 | 0.00 | 42 | 1012.0 |
| 20260906054330 | 70 | 263 | 0.0 | 0.0 | 0.00 | 0.00 | 0.00 | 43 | 1012.0 |
| 20260906053816 | 70 | 263 | 0.0 | 0.0 | 0.00 | 0.00 | 0.00 | 43 | 1012.1 |
| 20260906053325 | 71 | 263 | 0.0 | 0.0 | 0.00 | 0.00 | 0.00 | 43 | 1012.1 |
| 20260906052816 | 71 | 263 | 0.0 | 0.0 | 0.00 | 0.00 | 0.00 | 43 | 1012.0 |
| 20260906052325 | 71 | 263 | 0.0 | 0.0 | 0.00 | 0.00 | 0.00 | 43 | 1012.0 |
| 20260906051822 | 71 | 263 | 0.0 | 0.0 | 0.00 | 0.00 | 0.00 | 43 | 1012.0 |
| 20260906051332 | 71 | 263 | 0.0 | 0.0 | 0.00 | 0.00 | 0.00 | 43 | 1012.0 |
| 20260906050821 | 72 | 263 | 0.0 | 0.0 | 0.00 | 0.00 | 0.00 | 43 | 1011.9 |
| 20260906050329 | 72 | 263 | 0.0 | 0.0 | 0.00 | 0.00 | 0.00 | 43 | 1011.9 |
| 20260906045817 | 72 | 263 | 0.0 | 0.0 | 0.00 | 0.00 | 0.00 | 43 | 1011.8 |
| 20260906045327 | 72 | 265 | 0.0 | 0.0 | 0.00 | 0.00 | 0.00 | 43 | 1011.7 |
| 20260906044816 | 73 | 266 | 0.0 | 0.0 | 0.00 | 0.00 | 0.00 | 43 | 1011.7 |
| 20260906044329 | 73 | 267 | 0.0 | 0.0 | 0.00 | 0.00 | 0.00 | 43 | 1011.8 |
| 20260906043826 | 73 | 267 | 0.0 | 0.0 | 0.00 | 0.00 | 0.00 | 43 | 1011.8 |
| 20260906043336 | 73 | 267 | 0.0 | 0.0 | 0.00 | 0.00 | 0.00 | 43 | 1011.7 |
| 20260906042826 | 73 | 267 | 0.0 | 0.0 | 0.00 | 0.00 | 0.00 | 43 | 1011.7 |
| 20260906042334 | 74 | 267 | 0.0 | 0.0 | 0.00 | 0.00 | 0.00 | 42 | 1011.6 |
| 20260906041822 | 74 | 267 | 0.0 | 0.0 | 0.00 | 0.00 | 0.00 | 42 | 1011.6 |
| 20260906041335 | 74 | 266 | 0.0 | 0.0 | 0.00 | 0.00 | 0.00 | 42 | 1011.6 |
| 20260906040824 | 74 | 259 | 0.0 | 0.0 | 0.00 | 0.00 | 0.00 | 42 | 1011.5 |
| 20260906040333 | 74 | 238 | 0.0 | 0.0 | 0.00 | 0.00 | 0.00 | 42 | 1011.5 |
| 20260906035825 | 75 | 264 | 0.0 | 0.0 | 0.00 | 0.00 | 0.00 | 42 | 1011.4 |
| 20260906035318 | 75 | 263 | 0.0 | 0.0 | 0.00 | 0.00 | 0.00 | 41 | 1011.3 |
| 20260906034827 | 75 | 263 | 0.0 | 0.0 | 0.00 | 0.00 | 0.00 | 41 | 1011.3 |
| 20260906034336 | 75 | 265 | 0.0 | 0.0 | 0.00 | 0.00 | 0.00 | 41 | 1011.4 |
| 20260906033824 | 76 | 267 | 0.0 | 0.0 | 0.00 | 0.00 | 0.00 | 40 | 1011.3 |
| 20260906033333 | 76 | 265 | 0.0 | 0.0 | 0.00 | 0.00 | 0.00 | 40 | 1011.3 |
| 20260906032821 | 76 | 267 | 0.0 | 0.0 | 0.00 | 0.00 | 0.00 | 38 | 1011.2 |
| 20260906032329 | 77 | 267 | 0.0 | 0.0 | 0.00 | 0.00 | 0.00 | 37 | 1011.2 |
| 20260906031836 | 77 | 267 | 0.0 | 0.0 | 0.00 | 0.00 | 0.00 | 36 | 1011.2 |
| 20260906031325 | 78 | 267 | 0.0 | 0.0 | 0.00 | 0.00 | 0.00 | 35 | 1011.1 |
| 20260906030816 | 78 | 267 | 0.0 | 0.0 | 0.00 | 0.00 | 0.00 | 33 | 1011.1 |
| 20260906030326 | 78 | 267 | 0.0 | 0.0 | 0.00 | 0.00 | 0.00 | 33 | 1011.1 |
| 20260906025835 | 79 | 267 | 0.0 | 0.0 | 0.00 | 0.00 | 0.00 | 33 | 1011.0 |
| 20260906025325 | 79 | 267 | 0.0 | 0.0 | 0.00 | 0.00 | 0.00 | 32 | 1011.0 |
| 20260906024834 | 80 | 267 | 0.0 | 0.0 | 0.00 | 0.00 | 0.00 | 32 | 1011.0 |
| 20260906024322 | 80 | 267 | 0.0 | 0.0 | 0.00 | 0.00 | 0.00 | 32 | 1010.9 |
| 20260906023830 | 80 | 267 | 0.0 | 0.0 | 0.00 | 0.00 | 0.00 | 31 | 1010.9 |
| 20260906023319 | 80 | 267 | 0.0 | 0.0 | 0.00 | 0.00 | 0.00 | 31 | 1010.8 |
| 20260906022831 | 81 | 267 | 0.0 | 0.0 | 0.00 | 0.00 | 0.00 | 31 | 1010.9 |
| 20260906022324 | 81 | 267 | 0.0 | 0.0 | 0.00 | 0.00 | 0.00 | 30 | 1010.9 |
| 20260906021831 | 81 | 267 | 0.0 | 0.0 | 0.00 | 0.00 | 0.00 | 30 | 1010.9 |
| 20260906021320 | 82 | 267 | 0.0 | 0.0 | 0.00 | 0.00 | 0.00 | 30 | 1010.9 |
| 20260906020831 | 82 | 267 | 0.0 | 0.0 | 0.00 | 0.00 | 0.00 | 30 | 1011.1 |
| 20260906020321 | 82 | 267 | 0.0 | 0.0 | 0.00 | 0.00 | 0.00 | 30 | 1011.0 |
| 20260906015830 | 82 | 267 | 0.0 | 0.0 | 0.00 | 0.00 | 0.00 | 30 | 1010.9 |
| 20260906015319 | 83 | 267 | 0.0 | 0.0 | 0.00 | 0.00 | 0.00 | 30 | 1010.9 |
| 20260906014827 | 83 | 269 | 0.0 | 0.0 | 0.00 | 0.00 | 0.00 | 31 | 1010.9 |
| 20260906014320 | 83 | 269 | 0.0 | 0.0 | 0.00 | 0.00 | 0.00 | 31 | 1011.0 |
| 20260906013829 | 83 | 269 | 0.0 | 0.0 | 0.00 | 0.00 | 0.00 | 31 | 1011.0 |
| 20260906013318 | 84 | 269 | 0.0 | 0.0 | 0.00 | 0.00 | 0.00 | 31 | 1010.9 |
| 20260906012827 | 84 | 248 | 0.0 | 0.0 | 0.00 | 0.00 | 0.00 | 32 | 1010.9 |
| 20260906012316 | 84 | 248 | 0.0 | 0.0 | 0.00 | 0.00 | 0.00 | 32 | 1010.9 |
| 20260906011828 | 84 | 248 | 0.0 | 0.0 | 0.00 | 0.00 | 0.00 | 32 | 1011.0 |
| 20260906011318 | 85 | 227 | 0.0 | 0.0 | 0.00 | 0.00 | 0.00 | 32 | 1011.0 |
| 20260906010826 | 85 | 228 | 0.0 | 0.0 | 0.00 | 0.00 | 0.00 | 31 | 1011.0 |
| 20260906010335 | 85 | 227 | 0.0 | 0.0 | 0.00 | 0.00 | 0.00 | 31 | 1011.0 |
| 20260906005827 | 85 | 227 | 0.0 | 0.0 | 0.00 | 0.00 | 0.00 | 31 | 1011.0 |
| 20260906005315 | 86 | 228 | 0.0 | 0.0 | 0.00 | 0.00 | 0.00 | 30 | 1011.1 |
| 20260906004827 | 86 | 238 | 0.0 | 0.0 | 0.00 | 0.00 | 0.00 | 29 | 1011.1 |
| 20260906004317 | 86 | 151 | 0.0 | 0.0 | 0.00 | 0.00 | 0.00 | 30 | 1011.0 |
| 20260906003826 | 86 | 148 | 0.0 | 0.0 | 0.00 | 0.00 | 0.00 | 30 | 1011.0 |
| 20260906003335 | 86 | 148 | 0.0 | 0.0 | 0.00 | 0.00 | 0.00 | 30 | 1011.0 |
| 20260906002823 | 86 | 196 | 0.0 | 0.0 | 0.00 | 0.00 | 0.00 | 29 | 1010.9 |
| 20260906002332 | 86 | 177 | 0.0 | 0.0 | 0.00 | 0.00 | 0.00 | 29 | 1010.9 |
| 20260906001820 | 86 | 229 | 0.0 | 0.0 | 0.00 | 0.00 | 0.00 | 30 | 1011.0 |
| 20260906001333 | 86 | 225 | 0.0 | 0.0 | 0.00 | 0.00 | 0.00 | 30 | 1011.0 |
| 20260906000821 | 86 | 256 | 0.0 | 0.0 | 0.00 | 0.00 | 0.00 | 30 | 1011.0 |
| 20260906000329 | 86 | 256 | 0.0 | 0.0 | 0.00 | 0.00 | 0.00 | 30 | 1011.0 |
| 20260905235817 | 85 | 213 | 0.0 | 0.0 | 0.00 | 0.00 | 0.00 | 30 | 1011.0 |
| 20260905235329 | 86 | 263 | 0.0 | 0.0 | 0.00 | 0.00 | 0.00 | 30 | 1011.1 |
| 20260905234819 | 86 | 219 | 0.0 | 0.0 | 0.00 | 0.00 | 0.00 | 30 | 1011.1 |
| 20260905234328 | 86 | 269 | 0.0 | 0.0 | 0.00 | 0.00 | 0.00 | 30 | 1011.1 |
| 20260905233817 | 86 | 128 | 0.0 | 0.0 | 0.00 | 0.00 | 0.00 | 30 | 1011.2 |
| 20260905233326 | 86 | 128 | 0.0 | 0.0 | 0.00 | 0.00 | 0.00 | 29 | 1011.1 |
| 20260905232818 | 86 | 127 | 0.0 | 0.0 | 0.00 | 0.00 | 0.00 | 29 | 1011.2 |
| 20260905232328 | 86 | 128 | 0.0 | 0.0 | 0.00 | 0.00 | 0.00 | 28 | 1011.3 |
| 20260905231836 | 86 | 194 | 0.0 | 0.0 | 0.00 | 0.00 | 0.00 | 29 | 1011.3 |
| 20260905231325 | 86 | 313 | 0.0 | 0.0 | 0.00 | 0.00 | 0.00 | 29 | 1011.3 |
| 20260905230834 | 85 | 165 | 0.0 | 0.0 | 0.00 | 0.00 | 0.00 | 30 | 1011.3 |
| 20260905230323 | 85 | 166 | 0.0 | 0.0 | 0.00 | 0.00 | 0.00 | 30 | 1011.2 |
| 20260905225832 | 85 | 166 | 0.0 | 0.0 | 0.00 | 0.00 | 0.00 | 30 | 1011.3 |
| 20260905225325 | 85 | 313 | 0.0 | 0.0 | 0.00 | 0.00 | 0.00 | 31 | 1011.5 |
| 20260905224818 | 85 | 295 | 0.0 | 0.0 | 0.00 | 0.00 | 0.00 | 31 | 1011.4 |
| 20260905224329 | 85 | 277 | 0.0 | 0.0 | 0.00 | 0.00 | 0.00 | 30 | 1011.6 |
| 20260905223817 | 85 | 182 | 0.0 | 0.0 | 0.00 | 0.00 | 0.00 | 31 | 1011.6 |
| 20260905223326 | 85 | 153 | 0.0 | 0.0 | 0.00 | 0.00 | 0.00 | 32 | 1011.6 |
| 20260905222816 | 85 | 152 | 0.0 | 0.0 | 0.00 | 0.00 | 0.00 | 31 | 1011.7 |
| 20260905222327 | 84 | 155 | 0.0 | 0.0 | 0.00 | 0.00 | 0.00 | 32 | 1011.6 |
| 20260905221835 | 84 | 155 | 0.0 | 0.0 | 0.00 | 0.00 | 0.00 | 32 | 1011.6 |
| 20260905221324 | 84 | 163 | 0.0 | 0.0 | 0.00 | 0.00 | 0.00 | 33 | 1011.8 |
| 20260905220833 | 83 | 192 | 0.0 | 0.0 | 0.00 | 0.00 | 0.00 | 33 | 1011.8 |
| 20260905220326 | 83 | 240 | 0.0 | 0.0 | 0.00 | 0.00 | 0.00 | 34 | 1011.9 |
| 20260905215833 | 83 | 254 | 0.0 | 0.0 | 0.00 | 0.00 | 0.00 | 34 | 1012.0 |
| 20260905215322 | 83 | 251 | 0.0 | 0.0 | 0.00 | 0.00 | 0.00 | 34 | 1012.0 |
| 20260905214829 | 82 | 221 | 0.0 | 0.0 | 0.00 | 0.00 | 0.00 | 33 | 1012.0 |
| 20260905214318 | 82 | 215 | 0.0 | 0.0 | 0.00 | 0.00 | 0.00 | 34 | 1012.0 |
| 20260905213827 | 82 | 205 | 0.0 | 0.0 | 0.00 | 0.00 | 0.00 | 34 | 1012.1 |
| 20260905213319 | 82 | 169 | 0.0 | 0.0 | 0.00 | 0.00 | 0.00 | 35 | 1012.2 |
| 20260905212828 | 82 | 132 | 0.0 | 0.0 | 0.00 | 0.00 | 0.00 | 34 | 1012.3 |
| 20260905212336 | 82 | 133 | 0.0 | 0.0 | 0.00 | 0.00 | 0.00 | 34 | 1012.2 |
| 20260905211828 | 81 | 228 | 0.0 | 0.0 | 0.00 | 0.00 | 0.00 | 34 | 1012.3 |
| 20260905211317 | 81 | 219 | 0.0 | 0.0 | 0.00 | 0.00 | 0.00 | 34 | 1012.3 |
| 20260905210827 | 81 | 213 | 0.0 | 0.0 | 0.00 | 0.00 | 0.00 | 35 | 1012.4 |
| 20260905210336 | 81 | 211 | 0.0 | 0.0 | 0.00 | 0.00 | 0.00 | 34 | 1012.5 |
| 20260905205824 | 81 | 243 | 0.0 | 0.0 | 0.00 | 0.00 | 0.00 | 35 | 1012.4 |
| 20260905205334 | 81 | 243 | 0.0 | 0.0 | 0.00 | 0.00 | 0.00 | 34 | 1012.4 |
| 20260905204822 | 81 | 205 | 0.0 | 0.0 | 0.00 | 0.00 | 0.00 | 35 | 1012.4 |
| 20260905204332 | 81 | 179 | 0.0 | 0.0 | 0.00 | 0.00 | 0.00 | 36 | 1012.5 |
| 20260905203821 | 81 | 179 | 0.0 | 0.0 | 0.00 | 0.00 | 0.00 | 36 | 1012.5 |
| 20260905203314 | 80 | 181 | 0.0 | 0.0 | 0.00 | 0.00 | 0.00 | 38 | 1012.5 |
| 20260905202826 | 79 | 191 | 0.0 | 0.0 | 0.00 | 0.00 | 0.00 | 38 | 1012.5 |
| 20260905202335 | 79 | 210 | 0.0 | 0.0 | 0.00 | 0.00 | 0.00 | 37 | 1012.5 |
| 20260905201824 | 79 | 249 | 0.0 | 0.0 | 0.00 | 0.00 | 0.00 | 35 | 1012.7 |
| 20260905201335 | 79 | 249 | 0.0 | 0.0 | 0.00 | 0.00 | 0.00 | 37 | 1012.7 |
| 20260905200822 | 79 | 250 | 0.0 | 0.0 | 0.00 | 0.00 | 0.00 | 36 | 1012.7 |
| 20260905200331 | 79 | 252 | 0.0 | 0.0 | 0.00 | 0.00 | 0.00 | 38 | 1012.8 |
| 20260905195819 | 78 | 254 | 0.0 | 0.0 | 0.00 | 0.00 | 0.00 | 39 | 1012.8 |
| 20260905195328 | 78 | 211 | 0.0 | 0.0 | 0.00 | 0.00 | 0.00 | 38 | 1012.8 |
| 20260905194820 | 78 | 208 | 0.0 | 0.0 | 0.00 | 0.00 | 0.00 | 39 | 1013.0 |
| 20260905194329 | 78 | 260 | 0.0 | 0.0 | 0.00 | 0.00 | 0.00 | 41 | 1013.0 |
| 20260905193817 | 78 | 260 | 0.0 | 0.0 | 0.00 | 0.00 | 0.00 | 41 | 1013.1 |
| 20260905193326 | 78 | 261 | 0.0 | 0.0 | 0.00 | 0.00 | 0.00 | 42 | 1013.1 |
| 20260905192814 | 77 | 260 | 0.0 | 0.0 | 0.00 | 0.00 | 0.00 | 42 | 1013.0 |
| 20260905192325 | 77 | 262 | 0.0 | 0.0 | 0.00 | 0.00 | 0.00 | 42 | 1013.0 |
| 20260905191833 | 77 | 255 | 0.0 | 0.0 | 0.00 | 0.00 | 0.00 | 42 | 1013.0 |
| 20260905191322 | 77 | 253 | 0.0 | 0.0 | 0.00 | 0.00 | 0.00 | 43 | 1013.0 |
| 20260905190815 | 77 | 254 | 0.0 | 0.0 | 0.00 | 0.00 | 0.00 | 44 | 1013.1 |
| 20260905190328 | 77 | 253 | 0.0 | 0.0 | 0.00 | 0.00 | 0.00 | 45 | 1013.1 |
| 20260905185816 | 76 | 140 | 0.0 | 0.0 | 0.00 | 0.00 | 0.00 | 46 | 1013.1 |
| 20260905185326 | 76 | 124 | 0.0 | 0.0 | 0.00 | 0.00 | 0.00 | 46 | 1013.1 |
| 20260905184814 | 75 | 234 | 0.0 | 0.0 | 0.00 | 0.00 | 0.00 | 46 | 1013.2 |
| 20260905184326 | 75 | 234 | 0.0 | 0.0 | 0.00 | 0.00 | 0.00 | 48 | 1013.2 |
| 20260905183834 | 75 | 230 | 0.0 | 0.0 | 0.00 | 0.00 | 0.00 | 49 | 1013.1 |
| 20260905183323 | 74 | 222 | 0.0 | 0.0 | 0.00 | 0.00 | 0.00 | 49 | 1013.2 |
| 20260905182831 | 74 | 222 | 0.0 | 0.0 | 0.00 | 0.00 | 0.00 | 49 | 1013.2 |
| 20260905182324 | 74 | 235 | 0.0 | 0.0 | 0.00 | 0.00 | 0.00 | 50 | 1013.2 |
| 20260905181832 | 74 | 234 | 0.0 | 0.0 | 0.00 | 0.00 | 0.00 | 50 | 1013.1 |
| 20260905181321 | 73 | 223 | 0.0 | 0.0 | 0.00 | 0.00 | 0.00 | 51 | 1013.1 |
| 20260905180830 | 73 | 222 | 0.0 | 0.0 | 0.00 | 0.00 | 0.00 | 51 | 1013.1 |
| 20260905180325 | 73 | 234 | 0.0 | 0.0 | 0.00 | 0.00 | 0.00 | 52 | 1013.1 |
| 20260905175833 | 73 | 222 | 0.0 | 0.0 | 0.00 | 0.00 | 0.00 | 52 | 1013.1 |
| 20260905175323 | 72 | 169 | 0.0 | 0.0 | 0.00 | 0.00 | 0.00 | 53 | 1013.1 |
| 20260905174831 | 72 | 169 | 0.0 | 0.0 | 0.00 | 0.00 | 0.00 | 53 | 1013.0 |
| 20260905174321 | 72 | 169 | 0.0 | 0.0 | 0.00 | 0.00 | 0.00 | 54 | 1013.1 |
| 20260905173817 | 72 | 169 | 0.0 | 0.0 | 0.00 | 0.00 | 0.00 | 55 | 1013.1 |
| 20260905173327 | 71 | 171 | 0.0 | 0.0 | 0.00 | 0.00 | 0.00 | 56 | 1013.0 |
| 20260905172817 | 71 | 171 | 0.0 | 0.0 | 0.00 | 0.00 | 0.00 | 57 | 1013.0 |
| 20260905172329 | 70 | 171 | 0.0 | 0.0 | 0.00 | 0.00 | 0.00 | 57 | 1013.0 |
| 20260905171817 | 70 | 171 | 0.0 | 0.0 | 0.00 | 0.00 | 0.00 | 58 | 1013.1 |
| 20260905171326 | 70 | 173 | 0.0 | 0.0 | 0.00 | 0.00 | 0.00 | 58 | 1013.1 |
| 20260905170834 | 70 | 173 | 0.0 | 0.0 | 0.00 | 0.00 | 0.00 | 58 | 1012.9 |
| 20260905170323 | 69 | 173 | 0.0 | 0.0 | 0.00 | 0.00 | 0.00 | 60 | 1013.0 |
| 20260905165815 | 69 | 173 | 0.0 | 0.0 | 0.00 | 0.00 | 0.00 | 60 | 1013.1 |
| 20260905165327 | 69 | 161 | 0.0 | 0.0 | 0.00 | 0.00 | 0.00 | 61 | 1013.0 |
| 20260905164816 | 68 | 162 | 0.0 | 0.0 | 0.00 | 0.00 | 0.00 | 62 | 1013.0 |
| 20260905164326 | 68 | 163 | 0.0 | 0.0 | 0.00 | 0.00 | 0.00 | 63 | 1013.0 |
| 20260905163834 | 67 | 163 | 0.0 | 0.0 | 0.00 | 0.00 | 0.00 | 64 | 1012.9 |
| 20260905163322 | 67 | 163 | 0.0 | 0.0 | 0.00 | 0.00 | 0.00 | 64 | 1012.9 |
| 20260905162833 | 67 | 163 | 0.0 | 0.0 | 0.00 | 0.00 | 0.00 | 65 | 1013.0 |
| 20260905162322 | 67 | 163 | 0.0 | 0.0 | 0.00 | 0.00 | 0.00 | 66 | 1013.0 |
| 20260905161831 | 66 | 163 | 0.0 | 0.0 | 0.00 | 0.00 | 0.00 | 67 | 1013.1 |
| 20260905161441 | 66 | 163 | 0.0 | 0.0 | 0.00 | 0.00 | 0.00 | 68 | 1013.1 |
| 20260905160818 | 65 | 163 | 0.0 | 0.0 | 0.00 | 0.00 | 0.00 | 68 | 1013.1 |
| 20260905160328 | 65 | 163 | 0.0 | 0.0 | 0.00 | 0.00 | 0.00 | 69 | 1013.2 |
| 20260905155818 | 64 | 163 | 0.0 | 0.0 | 0.00 | 0.00 | 0.00 | 69 | 1013.2 |
| 20260905155330 | 64 | 163 | 0.0 | 0.0 | 0.00 | 0.00 | 0.00 | 70 | 1013.1 |
| 20260905154818 | 64 | 163 | 0.0 | 0.0 | 0.00 | 0.00 | 0.00 | 70 | 1013.2 |
| 20260905154327 | 63 | 163 | 0.0 | 0.0 | 0.00 | 0.00 | 0.00 | 71 | 1013.1 |
| 20260905153817 | 63 | 163 | 0.0 | 0.0 | 0.00 | 0.00 | 0.00 | 71 | 1013.1 |
| 20260905153327 | 63 | 163 | 0.0 | 0.0 | 0.00 | 0.00 | 0.00 | 72 | 1013.0 |
| 20260905152820 | 62 | 163 | 0.0 | 0.0 | 0.00 | 0.00 | 0.00 | 73 | 1013.1 |
| 20260905152329 | 61 | 163 | 0.0 | 0.0 | 0.00 | 0.00 | 0.00 | 77 | 1013.0 |
| 20260905151818 | 60 | 163 | 0.0 | 0.0 | 0.00 | 0.00 | 0.00 | 80 | 1013.0 |
| 20260905151327 | 60 | 163 | 0.0 | 0.0 | 0.00 | 0.00 | 0.00 | 83 | 1013.0 |
| 20260905150818 | 59 | 163 | 0.0 | 0.0 | 0.00 | 0.00 | 0.00 | 85 | 1013.0 |
| 20260905150328 | 58 | 163 | 0.0 | 0.0 | 0.00 | 0.00 | 0.00 | 86 | 1013.0 |
| 20260905145817 | 57 | 163 | 0.0 | 0.0 | 0.00 | 0.00 | 0.00 | 87 | 1012.9 |
| 20260905145330 | 56 | 163 | 0.0 | 0.0 | 0.00 | 0.00 | 0.00 | 87 | 1013.0 |
| 20260905144826 | 55 | 163 | 0.0 | 0.0 | 0.00 | 0.00 | 0.00 | 86 | 1012.9 |
| 20260905144318 | 55 | 163 | 0.0 | 0.0 | 0.00 | 0.00 | 0.00 | 85 | 1012.9 |
| 20260905143827 | 54 | 163 | 0.0 | 0.0 | 0.00 | 0.00 | 0.00 | 84 | 1012.9 |
| 20260905143317 | 54 | 163 | 0.0 | 0.0 | 0.00 | 0.00 | 0.00 | 83 | 1012.9 |
| 20260905142826 | 54 | 163 | 0.0 | 0.0 | 0.00 | 0.00 | 0.00 | 82 | 1012.9 |
| 20260905142336 | 53 | 163 | 0.0 | 0.0 | 0.00 | 0.00 | 0.00 | 81 | 1012.7 |
| 20260905141824 | 53 | 163 | 0.0 | 0.0 | 0.00 | 0.00 | 0.00 | 80 | 1012.7 |
| 20260905141316 | 53 | 163 | 0.0 | 0.0 | 0.00 | 0.00 | 0.00 | 79 | 1012.6 |
| 20260905140826 | 53 | 163 | 0.0 | 0.0 | 0.00 | 0.00 | 0.00 | 79 | 1012.6 |
| 20260905140319 | 53 | 163 | 0.0 | 0.0 | 0.00 | 0.00 | 0.00 | 78 | 1012.6 |
| 20260905135828 | 53 | 163 | 0.0 | 0.0 | 0.00 | 0.00 | 0.00 | 78 | 1012.5 |
| 20260905135318 | 54 | 163 | 0.0 | 0.0 | 0.00 | 0.00 | 0.00 | 77 | 1012.5 |
| 20260905134825 | 54 | 163 | 0.0 | 0.0 | 0.00 | 0.00 | 0.00 | 77 | 1012.5 |
| 20260905134317 | 54 | 163 | 0.0 | 0.0 | 0.00 | 0.00 | 0.00 | 77 | 1012.5 |
| 20260905133826 | 54 | 163 | 0.0 | 0.0 | 0.00 | 0.00 | 0.00 | 77 | 1012.5 |
| 20260905133335 | 54 | 163 | 0.0 | 0.0 | 0.00 | 0.00 | 0.00 | 77 | 1012.5 |
| 20260905132823 | 54 | 163 | 0.0 | 0.0 | 0.00 | 0.00 | 0.00 | 77 | 1012.4 |
| 20260905132319 | 54 | 163 | 0.0 | 0.0 | 0.00 | 0.00 | 0.00 | 77 | 1012.5 |
| 20260905131826 | 55 | 163 | 0.0 | 0.0 | 0.00 | 0.00 | 0.00 | 76 | 1012.5 |
| 20260905131335 | 55 | 163 | 0.0 | 0.0 | 0.00 | 0.00 | 0.00 | 76 | 1012.4 |
| 20260905130823 | 55 | 163 | 0.0 | 0.0 | 0.00 | 0.00 | 0.00 | 76 | 1012.4 |
| 20260905130332 | 55 | 163 | 0.0 | 0.0 | 0.00 | 0.00 | 0.00 | 77 | 1012.4 |
| 20260905125819 | 55 | 163 | 0.0 | 0.0 | 0.00 | 0.00 | 0.00 | 77 | 1012.4 |
| 20260905125329 | 55 | 163 | 0.0 | 0.0 | 0.00 | 0.00 | 0.00 | 77 | 1012.3 |
| 20260905124817 | 55 | 163 | 0.0 | 0.0 | 0.00 | 0.00 | 0.00 | 77 | 1012.4 |
| 20260905124330 | 56 | 163 | 0.0 | 0.0 | 0.00 | 0.02 | 0.00 | 77 | 1012.4 |
| 20260905123825 | 56 | 163 | 0.0 | 0.0 | 0.00 | 0.02 | 0.00 | 77 | 1012.4 |
| 20260905123319 | 56 | 163 | 0.0 | 0.0 | 0.00 | 0.02 | 0.00 | 77 | 1012.4 |
| 20260905122827 | 56 | 163 | 0.0 | 0.0 | 0.00 | 0.02 | 0.00 | 77 | 1012.4 |
| 20260905122335 | 56 | 163 | 0.0 | 0.0 | 0.00 | 0.02 | 0.00 | 77 | 1012.4 |
| 20260905121823 | 56 | 163 | 0.0 | 0.0 | 0.00 | 0.02 | 0.00 | 77 | 1012.5 |
| 20260905121332 | 56 | 163 | 0.0 | 0.0 | 0.00 | 0.02 | 0.00 | 77 | 1012.4 |
| 20260905120820 | 56 | 163 | 0.0 | 0.0 | 0.00 | 0.02 | 0.00 | 77 | 1012.6 |
| 20260905120330 | 56 | 163 | 0.0 | 0.0 | 0.00 | 0.02 | 0.00 | 77 | 1012.5 |
| 20260905115817 | 56 | 163 | 0.0 | 0.0 | 0.00 | 0.02 | 0.00 | 77 | 1012.6 |
| 20260905115332 | 56 | 163 | 0.0 | 0.0 | 0.00 | 0.02 | 0.00 | 77 | 1012.6 |
| 20260905114823 | 56 | 163 | 0.0 | 0.0 | 0.00 | 0.02 | 0.00 | 77 | 1012.6 |
| 20260905114332 | 56 | 163 | 0.0 | 0.0 | 0.00 | 0.02 | 0.00 | 77 | 1012.6 |
| 20260905113821 | 56 | 163 | 0.0 | 0.0 | 0.00 | 0.02 | 0.00 | 77 | 1012.6 |
| 20260905113330 | 56 | 163 | 0.0 | 0.0 | 0.00 | 0.02 | 0.00 | 77 | 1012.6 |
| 20260905112819 | 56 | 163 | 0.0 | 0.0 | 0.00 | 0.02 | 0.00 | 77 | 1012.5 |
| 20260905112328 | 56 | 163 | 0.0 | 0.0 | 0.00 | 0.02 | 0.00 | 77 | 1012.6 |
| 20260905111836 | 56 | 163 | 0.0 | 0.0 | 0.00 | 0.02 | 0.00 | 76 | 1012.7 |
| 20260905111324 | 56 | 163 | 0.0 | 0.0 | 0.00 | 0.02 | 0.00 | 76 | 1012.7 |
| 20260905110820 | 56 | 163 | 0.0 | 0.0 | 0.00 | 0.02 | 0.00 | 76 | 1012.8 |
| 20260905110329 | 56 | 163 | 0.0 | 0.0 | 0.00 | 0.02 | 0.00 | 76 | 1012.7 |
| 20260905105819 | 56 | 163 | 0.0 | 0.0 | 0.00 | 0.02 | 0.00 | 76 | 1012.7 |
| 20260905105332 | 56 | 163 | 0.0 | 0.0 | 0.00 | 0.02 | 0.00 | 76 | 1012.7 |
| 20260905104821 | 56 | 163 | 0.0 | 0.0 | 0.00 | 0.02 | 0.00 | 76 | 1012.6 |
| 20260905104330 | 56 | 163 | 0.0 | 0.0 | 0.00 | 0.02 | 0.00 | 75 | 1012.7 |
| 20260905103820 | 56 | 163 | 0.0 | 0.0 | 0.00 | 0.02 | 0.00 | 75 | 1012.7 |
| 20260905103329 | 56 | 163 | 0.0 | 0.0 | 0.00 | 0.02 | 0.00 | 75 | 1012.8 |
| 20260905102822 | 56 | 163 | 0.0 | 0.0 | 0.00 | 0.02 | 0.00 | 75 | 1012.8 |
| 20260905102332 | 56 | 163 | 0.0 | 0.0 | 0.00 | 0.02 | 0.00 | 74 | 1012.8 |
| 20260905101822 | 56 | 163 | 0.0 | 0.0 | 0.00 | 0.02 | 0.00 | 74 | 1012.9 |
| 20260905101332 | 56 | 163 | 0.0 | 0.0 | 0.00 | 0.02 | 0.00 | 74 | 1012.9 |
| 20260905100821 | 56 | 163 | 0.0 | 0.0 | 0.00 | 0.02 | 0.00 | 74 | 1012.8 |
| 20260905100329 | 57 | 163 | 0.0 | 0.0 | 0.00 | 0.02 | 0.00 | 74 | 1012.8 |
| 20260905095817 | 57 | 163 | 0.0 | 0.0 | 0.00 | 0.02 | 0.00 | 74 | 1012.8 |
| 20260905095325 | 57 | 163 | 0.0 | 0.0 | 0.00 | 0.02 | 0.00 | 74 | 1012.8 |
| 20260905094833 | 57 | 163 | 0.0 | 0.0 | 0.00 | 0.02 | 0.00 | 74 | 1012.8 |
| 20260905094326 | 57 | 163 | 0.0 | 0.0 | 0.00 | 0.03 | 0.00 | 73 | 1012.8 |
| 20260905093834 | 57 | 163 | 0.0 | 0.0 | 0.00 | 0.03 | 0.00 | 73 | 1012.8 |
| 20260905093323 | 57 | 163 | 0.0 | 0.0 | 0.00 | 0.03 | 0.00 | 72 | 1012.8 |
| 20260905092831 | 57 | 163 | 0.0 | 0.0 | 0.00 | 0.03 | 0.00 | 71 | 1012.9 |
| 20260905092320 | 57 | 163 | 0.0 | 0.0 | 0.00 | 0.03 | 0.00 | 70 | 1012.8 |
| 20260905091828 | 58 | 163 | 0.0 | 0.0 | 0.00 | 0.03 | 0.00 | 70 | 1012.8 |
| 20260905091317 | 58 | 163 | 0.0 | 0.0 | 0.00 | 0.03 | 0.00 | 70 | 1012.8 |
| 20260905090825 | 58 | 163 | 0.0 | 0.0 | 0.00 | 0.03 | 0.00 | 68 | 1012.8 |
| 20260905090333 | 58 | 163 | 0.0 | 0.0 | 0.00 | 0.03 | 0.00 | 68 | 1012.8 |
| 20260905085826 | 58 | 163 | 0.0 | 0.0 | 0.00 | 0.03 | 0.00 | 67 | 1012.8 |
| 20260905085336 | 59 | 163 | 0.0 | 0.0 | 0.00 | 0.03 | 0.00 | 67 | 1012.8 |
| 20260905084824 | 59 | 163 | 0.0 | 0.0 | 0.00 | 0.03 | 0.00 | 67 | 1012.7 |
| 20260905084335 | 59 | 163 | 0.0 | 0.0 | 0.00 | 0.04 | 0.00 | 66 | 1012.8 |
| 20260905083823 | 59 | 163 | 0.0 | 0.0 | 0.00 | 0.04 | 0.00 | 66 | 1012.8 |
| 20260905083331 | 60 | 163 | 0.0 | 0.0 | 0.00 | 0.04 | 0.00 | 66 | 1012.8 |
| 20260905082819 | 60 | 163 | 0.0 | 0.0 | 0.00 | 0.04 | 0.00 | 66 | 1012.8 |
| 20260905082329 | 60 | 163 | 0.0 | 0.0 | 0.00 | 0.04 | 0.00 | 66 | 1012.9 |
| 20260905081817 | 60 | 163 | 0.0 | 0.0 | 0.00 | 0.04 | 0.00 | 66 | 1012.9 |
| 20260905081329 | 60 | 163 | 0.0 | 0.0 | 0.00 | 0.04 | 0.00 | 66 | 1012.8 |
| 20260905080818 | 60 | 163 | 0.0 | 0.0 | 0.00 | 0.04 | 0.00 | 65 | 1012.8 |
| 20260905080327 | 61 | 163 | 0.0 | 0.0 | 0.00 | 0.04 | 0.00 | 65 | 1012.8 |
| 20260905075835 | 61 | 163 | 0.0 | 0.0 | 0.00 | 0.04 | 0.00 | 65 | 1012.8 |
| 20260905075324 | 61 | 163 | 0.0 | 0.0 | 0.00 | 0.04 | 0.00 | 65 | 1012.8 |
| 20260905074813 | 61 | 163 | 0.0 | 0.0 | 0.00 | 0.04 | 0.00 | 65 | 1012.9 |
| 20260905074326 | 61 | 163 | 0.0 | 0.0 | 0.00 | 0.05 | 0.00 | 64 | 1012.7 |
| 20260905073818 | 61 | 163 | 0.0 | 0.0 | 0.00 | 0.05 | 0.00 | 64 | 1012.7 |
| 20260905073327 | 61 | 163 | 0.0 | 0.0 | 0.00 | 0.05 | 0.00 | 64 | 1012.7 |
| 20260905072819 | 61 | 163 | 0.0 | 0.0 | 0.00 | 0.05 | 0.00 | 64 | 1012.6 |
| 20260905072326 | 61 | 163 | 0.0 | 0.0 | 0.00 | 0.05 | 0.00 | 64 | 1012.7 |
| 20260905071834 | 61 | 167 | 0.0 | 0.0 | 0.00 | 0.05 | 0.00 | 64 | 1012.6 |
| 20260905071323 | 62 | 167 | 0.0 | 0.0 | 0.00 | 0.05 | 0.00 | 64 | 1012.5 |
| 20260905070830 | 62 | 167 | 0.0 | 0.0 | 0.00 | 0.05 | 0.00 | 64 | 1012.6 |
| 20260905070321 | 62 | 171 | 0.0 | 0.0 | 0.00 | 0.05 | 0.00 | 64 | 1012.4 |
| 20260905065828 | 62 | 172 | 0.0 | 0.0 | 0.00 | 0.05 | 0.00 | 64 | 1012.5 |
| 20260905065318 | 62 | 259 | 0.0 | 0.0 | 0.00 | 0.05 | 0.00 | 64 | 1012.3 |
| 20260905064829 | 62 | 259 | 0.0 | 0.0 | 0.00 | 0.05 | 0.00 | 64 | 1012.3 |
| 20260905064322 | 62 | 261 | 0.0 | 0.0 | 0.00 | 0.05 | 0.00 | 64 | 1012.4 |
| 20260905063831 | 62 | 261 | 0.0 | 0.0 | 0.00 | 0.05 | 0.00 | 64 | 1012.3 |
| 20260905063320 | 62 | 260 | 0.0 | 0.0 | 0.00 | 0.05 | 0.00 | 64 | 1012.4 |
| 20260905062830 | 63 | 261 | 0.0 | 0.0 | 0.00 | 0.05 | 0.00 | 63 | 1012.4 |
| 20260905062319 | 63 | 261 | 0.0 | 0.0 | 0.00 | 0.05 | 0.00 | 62 | 1012.4 |